THORAD AGENA D DEB, 4764

Orbit data source: Space-Track

THORAD AGENA D DEB, 4764 is space debris in SSO originally from a launch on Wed, 08 Apr 1970 UTC launched from the Air Force Western Test Range (AFWTR). Debris objects in space refer to the collection of defunct objects orbiting the Earth. Examples of debris include non-operational satellites, rocket bodies, and fragments generated from explosions, collisions, or faulty payload assembly.

Loading next visibility...
Identifier
4764, 1970-025DJ
Orbit
SSO
Country
Flag of USUS
Related business
Manufacturer
Unknown
Mission
Spacecraft
Bus & Motor
Unknown
Mass
Unknown
Launch date (UTC)
1970-04-08 (56 years ago)
Launch vehicle
Unknown
Launch site
Air Force Western Test Range (AFWTR)
Object type
Payload
Rocket body
Debris
Shape & HBR
Unknown shape, 0.1 m
Radar Cross Section
Small (<0.1 m²)

Expand to show TLE details & history
Last TLE update: 9 hours ago

TLE from 9 hours ago
0 THORAD AGENA D DEB
1  4764U 70025DJ  25299.64562784  .00008621  00000-0  27584-2 0  9999
2  4764  99.5131 336.7345 0021428  20.4471 339.7567 14.39726901793176
Epoch: 2025-10-26T15:29Z
TLE epoch observation values (Epoch: 2025-10-26T15:29:42.245Z)
Latitude
-0°
Longitude
69.04963°
Altitude
747.967 km
Speed
7.488 km/s
True Right ascension
22h 26m 56s
True Declination
0° 00' 00"
Sunlit
Object was in full shadow at epoch
Visualization orbit readout
Latitude
Unknown
Longitude
Unknown
Altitude
Unknown
Speed
Unknown
Apparent Right ascension
Unknown
Apparent Declination
Unknown
Sunlit
N/A
Visualization observer readout
Local Sidereal Time
20:10:20
Azimuth
Unknown
Elevation
Unknown
Doppler factor
Unknown
Orbital elements
Apogee altitude
771.862 km
Perigee altitude
741.285 km
Semi-major axis
7,134.711 km
Eccentricity
0.00214
Inclination
99.5131°
RAAN
336.7345°
Arg. of periapsis
20.4471°
True anomaly
339.67153°
Mean anomaly
339.7567°
Eccentric anomaly
339.71413°
Mean motion
3.60146 °/min
Orbital period
99.96 mins
BSTAR
0.0027584
Loading maneuver chart data...
Computing Atmospheric mass density...

Documentation

Showing up to 5 results
|